Location: Alafon
(8.4500°N, 4.2333°E)
Time: 01:52:30
(UTC+00:00)

MOS 1 - Pass Details

Date: 05 July 2020
Orbit: 878 x 891 km, 99.2° (Epoch: 06 August)

Event Time Altitude Azimuth Distance (km) Brightness Sun altitude
Exits shadow 19:52:05 58° 133° (SE) 1,022 4.2 -24.5°
Maximum altitude 19:53:05 71° 77° (ENE) 931 4.2 -24.7°
Drops below altitude 10° 19:58:42 10° 353° (N) 2,535 7.1 -25.9°
Sets 20:01:05 0° 351° (N) 3,471 7.9 -26.4°
